Location: Cary
(35.7910°N, 78.7810°W)
Time: 05:17:14
(UTC-05:00)

N. Korean satellite - Visible Passes

Search period start: 19 November 2017 00:00
Search period end: 29 November 2017 00:00
Orbit: 460 x 515 km, 97.2° (Epoch: 18 November)

Date Brightness Start Highest point End Pass type
(mag) Time Alt. Az. Time Alt. Az. Time Alt. Az.
19 Nov 9.7 06:16:42 10° NE 06:19:36 21° E 06:22:31 10° SSE visible
19 Nov 6.5 18:22:46 10° S 18:26:13 82° WSW 18:29:46 10° NNW visible
20 Nov 10.4 05:55:08 10° ENE 05:56:00 11° E 05:56:50 10° ESE visible
20 Nov 6.8 17:59:30 10° SSE 18:02:48 43° ENE 18:06:11 10° N visible
21 Nov 7.8 17:36:46 10° ESE 17:39:28 21° ENE 17:42:11 10° NNE visible
21 Nov 9.5 19:10:30 10° SW 19:12:54 17° W 19:15:19 10° NW visible
22 Nov 8.1 18:46:03 10° SSW 18:49:18 36° W 18:52:36 10° NNW visible
23 Nov 9.7 06:16:17 10° NE 06:19:13 21° E 06:22:07 10° SSE visible
23 Nov 6.5 18:22:18 10° S 18:25:47 83° WSW 18:29:21 10° NNW visible
24 Nov 10.4 05:54:43 10° ENE 05:55:34 11° E 05:56:25 10° ESE visible
24 Nov 6.8 17:59:00 10° SSE 18:02:20 43° ENE 18:05:45 10° N visible
25 Nov 7.8 17:36:16 10° ESE 17:38:58 21° ENE 17:41:44 10° NNE visible
25 Nov 9.5 19:09:58 10° SW 19:12:24 18° W 19:14:53 10° NW visible
26 Nov 8.1 18:45:32 10° SSW 18:48:48 36° W 18:52:09 10° NNW visible
27 Nov 9.7 06:15:49 10° NE 06:18:44 21° E 06:21:38 10° SE visible
27 Nov 6.5 18:21:44 10° S 18:25:15 83° W 18:28:53 10° NNW visible
28 Nov 10.4 05:54:16 10° E 05:55:04 11° E 05:55:53 10° ESE visible
28 Nov 6.8 17:58:26 10° SSE 18:01:48 43° ENE 18:05:15 10° N visible
